Change the Weather History Date:

Wednesday, January 1, 2014

  Actual Average (KAQP) Record (KAQP)
Temperature  
Mean Temperature -1 °F -  
Max Temperature 3 °F 20 °F 44 °F (1998)
Min Temperature -7 °F 5 °F -20 °F (2001)
Degree Days  
Heating Degree Days 66    
Moisture  
Dew Point -9 °F    
Average Humidity 69    
Maximum Humidity 84    
Minimum Humidity 61    
Precipitation  
Precipitation 0.00 in - - ()
Sea Level Pressure  
Sea Level Pressure 30.42 in    
Wind  
Wind Speed 4 mph (NNE)    
Max Wind Speed 7 mph    
Max Gust Speed -    
Visibility 10 miles    
Events Snow    
Averages and records for this station are not official NWS values.
T = Trace of Precipitation, MM = Missing Value Source: NWS Daily Summary

Daily Weather History Graph

Daily Weather History Graph

Search for Another Location

Airport or City:

Trip Planner

Search our weather history database for the weather conditions in past years. The results will help you decide how hot, cold, wet, or windy it might be!

Date:

Astronomy

Jan. 01, 2014 Rise Set
Actual Time 8:02 AM CST 4:53 PM CST
Civil Twilight 7:29 AM CST 5:27 PM CST
Nautical Twilight 6:52 AM CST 6:04 PM CST
Astronomical Twilight 6:16 AM CST 6:40 PM CST
Moon 7:51 AM CST (1/1) 5:43 PM CST (1/1)
Length of Visible Light 9h 58m
Length of Day
8h 51m
New Moon, 0% of the Moon is Illuminated
Jan 1
New Moon
Jan 7
First Quarter
Jan 15
Full
Jan 23
Last Quarter
Jan 30
New

Hourly Weather History & Observations

Time (CST) Temp. Windchill Dew Point Humidity Pressure Visibility Wind Dir Wind Speed Gust Speed Precip Events Conditions
12:13 AM -5.8 °F -16.7 °F -13.0 °F 71% 30.39 in 10.0 mi NNW 4.6 mph - N/A   Mostly Cloudy
12:34 AM -5.8 °F -16.7 °F -13.0 °F 71% 30.38 in 10.0 mi North 4.6 mph - N/A   Overcast
12:54 AM -5.8 °F -18.4 °F -11.2 °F 77% 30.37 in 10.0 mi North 5.8 mph - N/A   Overcast
1:13 AM -5.8 °F -16.7 °F -11.2 °F 77% 30.37 in 10.0 mi North 4.6 mph - N/A   Overcast
1:34 AM -5.8 °F -16.7 °F -11.2 °F 77% 30.37 in 10.0 mi North 4.6 mph - N/A   Overcast
1:54 AM -5.8 °F -14.5 °F -11.2 °F 77% 30.37 in 10.0 mi North 3.5 mph - N/A   Overcast
2:13 AM -4.0 °F -17.8 °F -11.2 °F 71% 30.37 in 10.0 mi North 6.9 mph - N/A   Mostly Cloudy
2:34 AM -4.0 °F -16.3 °F -11.2 °F 71% 30.38 in 10.0 mi North 5.8 mph - N/A   Mostly Cloudy
2:54 AM -4.0 °F -12.4 °F -9.4 °F 78% 30.37 in 10.0 mi North 3.5 mph - N/A   Overcast
3:13 AM -4.0 °F -12.4 °F -9.4 °F 78% 30.38 in 10.0 mi NNE 3.5 mph - N/A   Overcast
3:34 AM -2.2 °F -10.4 °F -9.4 °F 71% 30.38 in 10.0 mi North 3.5 mph - N/A   Overcast
3:54 AM -2.2 °F - -9.4 °F 71% 30.37 in 10.0 mi Calm Calm - N/A   Overcast
4:13 AM -2.2 °F - -9.4 °F 71% 30.36 in 10.0 mi Calm Calm - N/A   Overcast
4:34 AM -2.2 °F - -9.4 °F 71% 30.36 in 10.0 mi Calm Calm - N/A   Overcast
4:53 AM -2.2 °F - -9.4 °F 71% 30.37 in 10.0 mi Calm Calm - N/A   Overcast
5:13 AM -0.4 °F -12.0 °F -9.4 °F 66% 30.37 in 10.0 mi ENE 5.8 mph - N/A   Overcast
5:34 AM -0.4 °F -10.4 °F -9.4 °F 66% 30.37 in 10.0 mi East 4.6 mph - N/A   Overcast
5:53 AM -0.4 °F -10.4 °F -9.4 °F 66% 30.37 in 10.0 mi ENE 4.6 mph - N/A   Overcast
6:13 AM -0.4 °F -12.0 °F -9.4 °F 66% 30.38 in 10.0 mi ENE 5.8 mph - N/A   Overcast
6:34 AM -0.4 °F -12.0 °F -9.4 °F 66% 30.38 in 10.0 mi East 5.8 mph - N/A   Overcast
6:54 AM -0.4 °F -8.3 °F -9.4 °F 66% 30.41 in 10.0 mi ENE 3.5 mph - N/A   Overcast
7:13 AM -0.4 °F -8.3 °F -9.4 °F 66% 30.40 in 10.0 mi ENE 3.5 mph - N/A   Overcast
7:34 AM -0.4 °F -8.3 °F -9.4 °F 66% 30.41 in 10.0 mi NE 3.5 mph - N/A   Overcast
7:54 AM -0.4 °F -8.3 °F -9.4 °F 66% 30.41 in 10.0 mi ENE 3.5 mph - N/A   Overcast
8:13 AM -0.4 °F -8.3 °F -9.4 °F 66% 30.43 in 10.0 mi ENE 3.5 mph - N/A   Overcast
8:34 AM -0.4 °F -12.0 °F -9.4 °F 66% 30.43 in 10.0 mi NE 5.8 mph - N/A   Overcast
8:54 AM -0.4 °F -10.4 °F -9.4 °F 66% 30.44 in 10.0 mi ENE 4.6 mph - N/A   Overcast
9:13 AM -0.4 °F -10.4 °F -9.4 °F 66% 30.45 in 10.0 mi ENE 4.6 mph - N/A   Overcast
9:34 AM -0.4 °F -8.3 °F -9.4 °F 66% 30.45 in 10.0 mi ENE 3.5 mph - N/A   Overcast
9:53 AM -0.4 °F -8.3 °F -9.4 °F 66% 30.45 in 10.0 mi ENE 3.5 mph - N/A   Overcast
10:14 AM -0.4 °F -8.3 °F -9.4 °F 66% 30.46 in 10.0 mi ENE 3.5 mph - N/A   Overcast
10:27 AM -0.4 °F -8.3 °F -9.4 °F 66% 30.45 in 10.0 mi East 3.5 mph - N/A   Overcast
10:53 AM -0.4 °F -8.3 °F -9.4 °F 66% 30.45 in 10.0 mi East 3.5 mph - N/A   Mostly Cloudy
11:14 AM -0.4 °F - -9.4 °F 66% 30.45 in 10.0 mi Calm Calm - N/A   Scattered Clouds
11:34 AM -0.4 °F - -9.4 °F 66% 30.45 in 10.0 mi Calm Calm - N/A   Mostly Cloudy
11:53 AM 1.4 °F - -9.4 °F 61% 30.44 in 10.0 mi Calm Calm - N/A   Mostly Cloudy
12:14 PM 1.4 °F - -9.4 °F 61% 30.43 in 10.0 mi Calm Calm - N/A   Mostly Cloudy
12:34 PM 1.4 °F - -9.4 °F 61% 30.43 in 10.0 mi Calm Calm - N/A   Mostly Cloudy
12:53 PM 1.4 °F -6.2 °F -9.4 °F 61% 30.42 in 10.0 mi ENE 3.5 mph - N/A   Mostly Cloudy
1:14 PM 1.4 °F -6.2 °F -9.4 °F 61% 30.42 in 10.0 mi NE 3.5 mph - N/A   Mostly Cloudy
1:34 PM 1.4 °F - -9.4 °F 61% 30.41 in 10.0 mi Calm Calm - N/A   Mostly Cloudy
1:53 PM 1.4 °F -8.3 °F -9.4 °F 61% 30.42 in 10.0 mi North 4.6 mph - N/A   Mostly Cloudy
2:14 PM 1.4 °F -9.9 °F -9.4 °F 61% 30.41 in 10.0 mi North 5.8 mph - N/A   Scattered Clouds
2:33 PM 1.4 °F -8.3 °F -9.4 °F 61% 30.41 in 10.0 mi NNE 4.6 mph - N/A   Scattered Clouds
2:54 PM 1.4 °F - -9.4 °F 61% 30.41 in 10.0 mi Calm Calm - N/A   Scattered Clouds
3:14 PM 1.4 °F - -9.4 °F 61% 30.41 in 10.0 mi Calm Calm - N/A   Scattered Clouds
3:34 PM 1.4 °F -6.2 °F -7.6 °F 66% 30.41 in 10.0 mi North 3.5 mph - N/A   Scattered Clouds
3:53 PM 1.4 °F -6.2 °F -7.6 °F 66% 30.42 in 10.0 mi North 3.5 mph - N/A   Mostly Cloudy
4:14 PM 1.4 °F -6.2 °F -7.6 °F 66% 30.42 in 10.0 mi North 3.5 mph - N/A   Overcast
4:33 PM 1.4 °F -6.2 °F -9.4 °F 61% 30.43 in 10.0 mi North 3.5 mph - N/A   Overcast
4:54 PM 1.4 °F - -7.6 °F 66% 30.43 in 10.0 mi Calm Calm - N/A   Overcast
5:14 PM 3.2 °F -4.2 °F -7.6 °F 61% 30.43 in 10.0 mi North 3.5 mph - N/A   Overcast
5:33 PM 3.2 °F -4.2 °F -7.6 °F 61% 30.44 in 10.0 mi North 3.5 mph - N/A   Overcast
5:54 PM 3.2 °F -4.2 °F -7.6 °F 61% 30.45 in 10.0 mi North 3.5 mph - N/A   Overcast
6:14 PM 3.2 °F -6.2 °F -5.8 °F 66% 30.45 in 10.0 mi North 4.6 mph - N/A   Overcast
6:33 PM 3.2 °F -4.2 °F -5.8 °F 66% 30.45 in 7.0 mi NNE 3.5 mph - N/A   Overcast
6:54 PM 3.2 °F -6.2 °F -5.8 °F 66% 30.44 in 10.0 mi NNE 4.6 mph - N/A   Overcast
7:14 PM 3.2 °F -7.8 °F -5.8 °F 66% 30.45 in 10.0 mi North 5.8 mph - N/A   Overcast
7:34 PM 3.2 °F -4.2 °F -5.8 °F 66% 30.45 in 10.0 mi North 3.5 mph - N/A   Overcast
7:53 PM 1.4 °F -9.9 °F -5.8 °F 72% 30.44 in 10.0 mi North 5.8 mph - N/A   Overcast
8:14 PM 1.4 °F -8.3 °F -5.8 °F 72% 30.45 in 10.0 mi NNE 4.6 mph - N/A   Overcast
8:34 PM 1.4 °F -6.2 °F -4.0 °F 78% 30.44 in 10.0 mi North 3.5 mph - N/A   Overcast
8:53 PM 1.4 °F -6.2 °F -5.8 °F 72% 30.44 in 10.0 mi North 3.5 mph - N/A   Overcast
9:14 PM 1.4 °F - -4.0 °F 78% 30.43 in 10.0 mi Calm Calm - N/A   Overcast
9:34 PM 1.4 °F - -5.8 °F 72% 30.43 in 10.0 mi Calm Calm - N/A Snow Light Snow
9:53 PM -0.4 °F - -5.8 °F 78% 30.43 in 10.0 mi Calm Calm - N/A   Overcast
10:14 PM -0.4 °F -8.3 °F -5.8 °F 78% 30.43 in 10.0 mi NNW 3.5 mph - N/A   Overcast
10:34 PM -0.4 °F -8.3 °F -5.8 °F 78% 30.44 in 10.0 mi NNW 3.5 mph - N/A   Mostly Cloudy
10:53 PM -0.4 °F -8.3 °F -5.8 °F 78% 30.44 in 10.0 mi NW 3.5 mph - N/A   Mostly Cloudy
11:14 PM -2.2 °F -10.4 °F -7.6 °F 78% 30.44 in 10.0 mi NW 3.5 mph - N/A   Scattered Clouds
11:34 PM -5.8 °F - -9.4 °F 84% 30.43 in 10.0 mi Calm Calm - N/A   Clear
11:53 PM -7.6 °F -16.5 °F -11.2 °F 84% 30.43 in 10.0 mi NNW 3.5 mph - N/A   Clear